Miscellaneous Local Product
Issued by NWS Hastings, NE

Home | Current Version | Previous Version | Graphics & Text | Print | Product List | Glossary On
Versions: 1 2 3 4 5 6 7 8 9 10 11 12 13 14 15 16 17 18 19 20 21 22 23 24 25 26 27 28 29 30 31 32 33 34 35 36 37 38 39 40 41 42 43 44 45 46 47 48 49 50
000
AXUS43 KGID 240902
MISGRI

GID CWA HOURLY WEATHER ROUNDUP
NATIONAL WEATHER SERVICE HASTINGS NE
400 AM CDT THU JUL 24 2014

NOTE: "FAIR" INDICATES FEW OR NO CLOUDS BELOW 12,000 FEET WITH NO
SIGNIFICANT WEATHER AND/OR OBSTRUCTIONS TO VISIBILITY.

...SOUTH CENTRAL NEBRASKA...

CITY           SKY/WX    TMP DP  RH WIND       PRES   REMARKS
GRAND ISLAND   CLEAR     65  59  81 SE7       30.12F
HASTINGS       CLEAR     66  58  75 S6        30.12F
KEARNEY        CLEAR     63  57  82 SE7       30.12F
ORD            CLEAR     64  59  83 SE3       30.11F
YORK           CLEAR     63  61  94 E3        30.13F
AURORA         CLEAR     63  61  94 SE3       30.12F
LEXINGTON      CLEAR     65  60  86 SE7       30.12F
HOLDREGE       CLEAR     63  60  89 SE7       30.12F
HEBRON         CLEAR     61  57  87 CALM      30.12S

...NEBRASKA PANHANDLE...

CITY           SKY/WX    TMP DP  RH WIND       PRES   REMARKS
CHADRON        MOCLDY    72  65  78 S12       29.99F
ALLIANCE       MOCLDY    67  63  87 SE17      30.05F
SCOTTSBLUFF    MOCLDY    68  64  87 SE9       30.04F
SIDNEY         PTCLDY    72  63  73 S16       30.10F

...WESTERN AND NORTH CENTRAL NEBRASKA...

CITY           SKY/WX    TMP DP  RH WIND       PRES   REMARKS
VALENTINE      CLEAR     67  60  78 S12       30.06F
AINSWORTH      CLEAR     65  58  77 SE13G20   30.09F
ONEILL         MOCLDY    66  58  75 SE8       30.10F
BROKEN BOW     CLEAR     64  60  87 SE6       30.12F
IMPERIAL       CLEAR     68  62  81 S14       30.11F
NORTH PLATTE   CLEAR     67  59  75 SE12      30.10F
MCCOOK         CLEAR     66  62  87 E6        30.12F

...EASTERN NEBRASKA...

CITY           SKY/WX    TMP DP  RH WIND       PRES   REMARKS
NORFOLK        PTCLDY    63  59  87 SE5       30.12F
SO SIOUX CITY  CLEAR     63  61  93 SE6       30.13F
TEKAMAH        CLEAR     63  59  87 CALM      30.13F
COLUMBUS       PTCLDY    61  55  82 E5        30.13F
ALBION         PTCLDY    61  59  92 SE6       30.12F
OMAHA EPPLEY   CLEAR     69  59  70 SE6       30.14F
OFFUTT AFB     CLEAR     63  63  99 CALM      30.13F
MILLARD        CLEAR     67  62  83 CALM      30.13F
LINCOLN        CLEAR     71  61  70 SE9       30.13F
NEBRASKA CITY  CLEAR     65  61  87 E5        30.14S
BEATRICE       CLEAR     65  62  89 SE3       30.12S
FALLS CITY     CLEAR     64  61  90 E5        30.12F

...NORTHERN KANSAS...

CITY           SKY/WX    TMP DP  RH WIND       PRES   REMARKS
GOODLAND       CLEAR     68  66  93 S13       30.14F
HILL CITY      CLEAR     68  62  81 SE5       30.11F
HAYS           CLEAR     66  57  72 CALM      30.12F
RUSSELL        CLEAR     66  61  84 SE8       30.10F
CONCORDIA      CLEAR     65  63  93 SE6       30.10F
SALINA         CLEAR     67  62  84 S5        30.10F
TOPEKA         CLEAR     69  63  81 E3        30.11F



USA.gov is the U.S. government's official web portal to all federal, state and local government web resources and services.